El Paso, TX

2:56 PM MDT on August 19, 2017 (GMT -0600)
El Paso International

Weather History for KELP - September, 2014

Change the Weather History Date:

Monday, September 15, 2014

  Actual Average Record
Temperature  
Mean Temperature 72 °F 76 °F  
Max Temperature 79 °F 88 °F 99 °F (1956)
Min Temperature 65 °F 64 °F 47 °F (1879)
Degree Days  
Heating Degree Days 0 0  
Month to date heating degree days 0 0  
Since 1 July heating degree days 0 0  
Cooling Degree Days 7 11  
Month to date cooling degree days 176 191  
Year to date cooling degree days 2395 2120  
Growing Degree Days 22 (Base 50)    
Moisture  
Dew Point 60 °F    
Average Humidity 66    
Maximum Humidity 79    
Minimum Humidity 52    
Precipitation  
Precipitation 0.05 in 0.06 in 0.83 in (1921)
Month to date precipitation 0.74 0.83  
Year to date precipitation 3.87 7.15  
Snow  
Snow 0.00 in - - ()
Month to date snowfall 0.0  
Since 1 July snowfall 0.0  
Since 1 September snowfall 0.0  
Snow Depth 0.00 in    
Sea Level Pressure  
Sea Level Pressure 30.00 in    
Wind  
Wind Speed 6 mph (ENE)    
Max Wind Speed 13 mph    
Max Gust Speed 18 mph    
Visibility 10 miles    
Events Rain    
T = Trace of Precipitation, MM = Missing Value Source: NWS Daily Summary

Daily Weather History Graph

Daily Weather History Graph

Search for Another Location

Airport or City:

Trip Planner

Search our weather history database for the weather conditions in past years. The results will help you decide how hot, cold, wet, or windy it might be!

Date:

Astronomy

Sep. 15, 2014 Rise Set
Actual Time 6:49 AM MDT 7:11 PM MDT
Civil Twilight 6:25 AM MDT 7:35 PM MDT
Nautical Twilight 5:56 AM MDT 8:04 PM MDT
Astronomical Twilight 5:27 AM MDT 8:33 PM MDT
Moon No Moon Rise 1:31 PM MDT (9/15)
Length of Visible Light 13h 10m
Length of Day
12h 21m
Waning Gibbous, 53% of the Moon is Illuminated
Sep 15
Waning Gibbous
Sep 15
Last Quarter
Sep 24
New
Oct 1
First Quarter
Oct 8
Full

Hourly Weather History & Observations

Time (MDT) Temp. Dew Point Humidity Pressure Visibility Wind Dir Wind Speed Gust Speed Precip Events Conditions
12:51 AM 68.0 °F 57.9 °F 70% 29.96 in 10.0 mi ENE 5.8 mph - N/A   Partly Cloudy
1:51 AM 68.0 °F 57.9 °F 70% 29.96 in 10.0 mi NE 3.5 mph - N/A   Partly Cloudy
2:51 AM 66.2 °F 57.2 °F 73% 30.14 in 10.0 mi Calm Calm - N/A   Partly Cloudy
3:51 AM 66.9 °F 57.9 °F 73% 29.94 in 10.0 mi SE 6.9 mph - N/A   Partly Cloudy
4:51 AM 66.0 °F 57.9 °F 75% 29.94 in 10.0 mi East 4.6 mph - N/A   Partly Cloudy
5:51 AM 66.0 °F 57.9 °F 75% 29.96 in 10.0 mi NE 4.6 mph - N/A   Mostly Cloudy
6:51 AM 66.0 °F 57.9 °F 75% 29.98 in 10.0 mi North 5.8 mph - N/A   Mostly Cloudy
7:51 AM 66.9 °F 57.9 °F 73% 29.99 in 10.0 mi NNE 4.6 mph - N/A   Mostly Cloudy
8:51 AM 66.9 °F 57.9 °F 73% 30.01 in 10.0 mi North 8.1 mph - N/A   Mostly Cloudy
9:51 AM 70.0 °F 57.9 °F 65% 30.01 in 10.0 mi NNE 8.1 mph - N/A   Mostly Cloudy
10:51 AM 73.9 °F 59.0 °F 59% 30.00 in 10.0 mi Variable 4.6 mph - N/A   Mostly Cloudy
11:23 AM 73.0 °F 59.0 °F 61% 30.18 in 10.0 mi Variable 4.6 mph - N/A   Mostly Cloudy
11:51 AM 73.4 °F 59.0 °F 61% 30.17 in 10.0 mi East 3.5 mph - N/A   Mostly Cloudy
12:51 PM 75.9 °F 59.0 °F 56% 29.98 in 10.0 mi SE 10.4 mph - N/A   Mostly Cloudy
1:51 PM 77.0 °F 59.0 °F 54% 29.96 in 10.0 mi ESE 10.4 mph - N/A   Mostly Cloudy
2:51 PM 78.1 °F 59.0 °F 52% 29.95 in 10.0 mi SE 8.1 mph - N/A   Mostly Cloudy
3:51 PM 75.9 °F 61.0 °F 60% 29.94 in 10.0 mi East 9.2 mph - 0.00 in Rain Light Rain
4:51 PM 78.1 °F 59.0 °F 52% 29.93 in 10.0 mi ESE 11.5 mph - 0.00 in   Mostly Cloudy
5:51 PM 77.0 °F 59.0 °F 54% 29.94 in 10.0 mi SE 11.5 mph - N/A   Mostly Cloudy
6:51 PM 75.0 °F 62.1 °F 64% 29.96 in 10.0 mi East 5.8 mph - 0.00 in Rain Light Rain
7:51 PM 73.0 °F 64.0 °F 73% 29.97 in 10.0 mi East 3.5 mph - 0.00 in Rain Light Rain
8:51 PM 75.0 °F 63.0 °F 66% 29.99 in 10.0 mi East 5.8 mph - 0.00 in   Overcast
9:51 PM 73.0 °F 63.0 °F 71% 30.01 in 10.0 mi ENE 4.6 mph - N/A   Overcast
10:51 PM 73.0 °F 64.9 °F 76% 30.01 in 10.0 mi North 5.8 mph - 0.00 in Rain Light Rain
11:51 PM 71.6 °F 64.4 °F 78% 30.20 in 10.0 mi North 4.6 mph - N/A Rain Light Rain